This demonstration page uses our WeatherBlox Daily Observations layout. Learn more.

Left ArrowRight Arrow

36.17497, -115.13722

Hourly Observations for February 8, 2019

Temp ( °F °C ) Dew Point ( °F °C ) Humidity (%) Winds ( mph kmh ) Pressure ( in mb ) Visibility ( mi km ) Precip ( " mm )
12:53 am 00:53 Clear 37 2.8 17 -8.3 44 44 Calm 30.31 1026 10 16 0.00 0.00
1:53 am 01:53 Clear 33 0.6 19 -7.2 56 56 N 5 7 30.29 1026 10 16 0.00 0.00
2:53 am 02:53 Clear 32 0 20 -6.7 61 61 Calm 30.27 1025 10 16 0.00 0.00
3:53 am 03:53 Clear 31 -0.6 20 -6.7 64 64 Calm 30.27 1025 10 16 0.00 0.00
4:53 am 04:53 Clear 30 -1.1 19 -7.2 64 64 NW 5 7 30.27 1025 10 16 0.00 0.00
5:53 am 05:53 Clear 31 -0.6 19 -7.2 61 61 NW 3 6 30.27 1025 10 16 0.00 0.00
6:53 am 06:53 Sunny 30 -1.1 19 -7.2 64 64 NNW 3 6 30.27 1025 10 16 0.00 0.00
7:53 am 07:53 Sunny 35 1.7 19 -7.2 52 52 Calm 30.28 1025 10 16 0.00 0.00
8:53 am 08:53 Sunny 38 3.3 19 -7.2 46 46 SE 3 6 30.27 1025 10 16 0.00 0.00
9:53 am 09:53 Sunny 41 5 16 -8.9 36 36 SSE 5 7 30.25 1024 10 16 0.00 0.00
10:53 am 10:53 Sunny 43 6.1 16 -8.9 34 34 ESE 8 13 30.23 1024 10 16 0.00 0.00
11:53 am 11:53 Sunny 46 7.8 16 -8.9 30 30 SE 8 13 30.19 1023 10 16 0.00 0.00
12:53 pm 12:53 Sunny 47 8.3 16 -8.9 29 29 undefined N/A 30.16 1021 10 16 0.00 0.00
1:53 pm 13:53 Sunny 48 8.9 15 -9.4 27 27 S 6 9 30.13 1020 10 16 0.00 0.00
2:53 pm 14:53 Sunny 49 9.4 14 -10 25 25 SE 5 7 30.10 1019 10 16 0.00 0.00
3:53 pm 15:53 Sunny 50 10 17 -8.3 27 27 undefined N/A 30.09 1019 10 16 0.00 0.00
4:53 pm 16:53 Sunny 49 9.4 16 -8.9 27 27 ENE 8 13 30.08 1019 10 16 0.00 0.00
5:53 pm 17:53 Clear 47 8.3 18 -7.8 31 31 E 7 11 30.07 1018 10 16 0.00 0.00
6:53 pm 18:53 Clear 46 7.8 19 -7.2 34 34 ENE 5 7 30.07 1018 10 16 0.00 0.00
7:53 pm 19:53 Clear 45 7.2 19 -7.2 35 35 Calm 30.06 1018 10 16 0.00 0.00
8:53 pm 20:53 Clear 42 5.6 20 -6.7 41 41 Calm 30.07 1018 10 16 0.00 0.00
9:53 pm 21:53 Clear 40 4.4 21 -6.1 47 47 Calm 30.07 1018 10 16 0.00 0.00
10:53 pm 22:53 Clear 38 3.3 22 -5.6 52 52 Calm 30.06 1018 10 16 0.00 0.00
11:53 pm 23:53 Clear 40 4.4 20 -6.7 45 45 Calm 30.04 1017 10 16 0.00 0.00

Powered by AerisWeather